period_start,C,m1,H,J0,J1,J2,J3,J4,J5,JA,JB,JC,JD,JJ,JK,JN,#
2014-01-05 00:00:46,0.16,4.73,0.00,23.54,24.87,27.71,6.02,30.92,1023.45,2047.00,2030.38,2235.05,2434.71,350.50,326.41,22.02,0000 0000 0000 0000 000000
2014-01-05 00:01:46,0.21,4.73,0.00,23.56,24.87,27.72,6.01,30.79,1023.45,2047.00,2030.14,2235.00,2434.29,350.08,325.61,22.03,0000 0000 0000 0000 000000
2014-01-05 00:02:46,0.17,4.74,0.00,23.57,24.87,27.69,6.03,30.92,1023.45,2047.00,2030.04,2234.87,2434.11,350.63,326.03,22.03,0000 0000 0000 0000 000000
2014-01-05 00:03:47,0.14,4.74,0.00,23.57,24.87,27.72,5.86,30.83,1023.45,2047.00,2029.98,2234.50,2434.03,349.32,324.88,22.04,0000 0000 0000 0000 000000
2014-01-05 00:04:47,0.17,4.74,0.00,23.57,24.88,27.75,6.07,30.96,1023.45,2047.00,2029.61,2234.21,2433.99,350.53,326.01,22.05,0000 0000 0000 0000 000000
2014-01-05 00:05:47,0.25,4.74,0.00,23.58,24.89,27.78,6.09,31.00,1023.45,2047.00,2029.24,2234.08,2433.64,350.46,325.43,22.05,0000 0000 0000 0000 000000
2014-01-05 00:06:47,0.23,4.74,0.00,23.58,24.89,27.77,5.94,30.83,1023.45,2047.00,2029.08,2234.02,2433.24,349.74,324.86,22.06,0000 0000 0000 0000 000000
2014-01-05 00:07:48,0.13,4.74,0.00,23.58,24.90,27.76,6.05,30.83,1023.45,2047.00,2029.01,2233.99,2433.08,350.40,325.79,22.06,0000 0000 0000 0000 000000
2014-01-05 00:08:48,0.05,4.74,0.00,23.58,24.90,27.77,5.90,30.71,1023.45,2047.00,2028.90,2233.72,2433.02,349.55,325.11,22.07,0000 0000 0000 0000 000000
2014-01-05 00:09:48,0.21,4.74,0.00,23.58,24.90,27.78,5.93,30.92,1023.45,2047.00,2028.47,2233.32,2432.97,349.92,325.49,22.07,0000 0000 0000 0000 000000
2014-01-05 00:10:49,0.28,4.74,0.00,23.58,24.90,27.75,6.07,30.92,1023.45,2047.00,2028.17,2233.12,2432.64,350.88,326.54,22.08,0000 0000 0000 0000 000000
2014-01-05 00:11:49,0.21,4.75,0.00,23.57,24.90,27.77,6.00,31.17,1023.45,2047.00,2028.06,2233.05,2432.28,350.32,325.61,22.09,0000 0000 0000 0000 000000
2014-01-05 00:12:49,0.13,4.75,0.00,23.59,24.90,27.79,6.04,30.88,1023.45,2047.00,2028.00,2233.01,2432.10,351.10,326.43,22.09,0000 0000 0000 0000 000000
2014-01-05 00:13:49,0.07,4.75,0.00,23.59,24.90,27.78,6.02,30.71,1023.45,2047.00,2027.96,2232.98,2432.04,349.99,325.26,22.10,0000 0000 0000 0000 000000
2014-01-05 00:14:50,0.03,4.75,0.00,23.59,24.91,27.79,5.98,30.46,1023.45,2047.00,2027.66,2232.78,2432.00,350.35,325.82,22.10,0000 0000 0000 0000 000000
2014-01-05 00:15:50,0.22,4.75,0.00,23.59,24.92,27.79,6.00,30.58,1023.45,2047.00,2027.25,2232.37,2431.93,350.40,325.87,22.11,0000 0000 0000 0000 000000
2014-01-05 00:16:50,0.27,4.75,0.00,23.60,24.92,27.80,6.07,30.67,1023.45,2047.00,2027.09,2232.14,2431.61,350.96,326.38,22.12,0000 0000 0000 0000 000000
2014-01-05 00:17:50,0.21,4.75,0.00,23.60,24.92,27.80,5.96,30.67,1023.45,2047.00,2027.01,2232.05,2431.24,349.79,324.94,22.12,0000 0000 0000 0000 000000
2014-01-05 00:18:51,0.13,4.75,0.00,23.62,24.92,27.78,5.97,30.58,1023.45,2047.00,2026.74,2232.01,2431.08,349.87,325.35,22.13,0000 0000 0000 0000 000000
2014-01-05 00:19:51,0.14,4.75,0.00,23.63,24.92,27.80,5.91,30.67,1023.45,2047.00,2026.31,2231.92,2431.02,349.26,324.85,22.13,0000 0000 0000 0000 000000
2014-01-05 00:20:51,0.18,4.75,0.00,23.63,24.92,27.82,6.03,30.79,1023.45,2047.00,2026.11,2231.61,2430.97,350.36,325.80,22.14,0000 0000 0000 0000 000000
2014-01-05 00:21:51,0.20,4.76,0.00,23.63,24.92,27.81,6.00,30.54,1023.45,2047.00,2026.04,2231.24,2430.69,349.79,325.05,22.15,0000 0000 0000 0000 000000
2014-01-05 00:22:51,0.22,4.76,0.00,23.61,24.93,27.82,5.87,30.79,1023.45,2047.00,2025.99,2231.08,2430.31,349.73,325.22,22.15,0000 0000 0000 0000 000000
2014-01-05 00:23:52,0.15,4.76,0.00,23.62,24.93,27.81,5.96,30.42,1023.45,2047.00,2025.63,2231.03,2430.11,349.93,325.26,22.16,0000 0000 0000 0000 000000
2014-01-05 00:24:52,0.17,4.76,0.00,23.63,24.94,27.81,5.94,30.50,1023.45,2047.00,2025.27,2230.91,2430.04,350.72,326.21,22.16,0000 0000 0000 0000 000000
2014-01-05 00:25:52,0.18,4.76,0.00,23.65,24.95,27.81,5.93,30.79,1023.45,2047.00,2025.10,2230.64,2430.01,350.04,325.47,22.17,0000 0000 0000 0000 000000
2014-01-05 00:26:52,0.16,4.76,0.00,23.66,24.95,27.79,5.86,30.71,1023.45,2047.00,2025.02,2230.28,2429.79,349.27,325.20,22.17,0000 0000 0000 0000 000000
2014-01-05 00:27:53,0.20,4.76,0.00,23.65,24.95,27.80,6.13,30.71,1023.45,2047.00,2024.93,2230.10,2429.36,351.16,325.95,22.18,0000 0000 0000 0000 000000
2014-01-05 00:28:53,0.20,4.76,0.00,23.62,24.95,27.83,6.04,30.88,1023.45,2047.00,2024.46,2230.04,2429.13,350.88,325.50,22.19,0000 0000 0000 0000 000000
2014-01-05 00:29:53,0.21,4.76,0.00,23.61,24.95,27.84,6.17,30.92,1023.45,2047.00,2024.17,2229.98,2429.03,351.17,326.13,22.19,0000 0000 0000 0000 000000
2014-01-05 00:30:54,0.13,4.76,0.00,23.64,24.95,27.82,5.99,30.67,1023.44,2047.00,2024.06,2229.67,2428.93,350.65,326.06,22.20,0000 0000 0000 0000 000000
2014-01-05 00:31:54,0.17,4.77,0.00,23.65,24.95,27.83,5.81,30.50,1023.45,2047.00,2023.97,2229.30,2428.57,349.95,325.39,22.20,0000 0000 0000 0000 000000
2014-01-05 00:32:54,0.26,4.77,0.00,23.67,24.96,27.85,6.03,31.04,1023.45,2046.99,2023.57,2229.11,2428.23,348.92,324.73,22.21,0000 0000 0000 0000 000000
2014-01-05 00:33:54,0.25,4.77,0.00,23.65,24.97,27.86,6.10,31.08,1023.45,2046.99,2023.23,2229.03,2428.08,350.14,325.73,22.22,0000 0000 0000 0000 000000
2014-01-05 00:34:54,0.17,4.77,0.00,23.67,24.97,27.87,6.15,31.00,1023.45,2046.98,2023.08,2228.96,2428.01,350.39,325.73,22.22,0000 0000 0000 0000 000000
2014-01-05 00:35:55,0.08,4.77,0.00,23.67,24.97,27.84,5.99,30.92,1023.45,2046.99,2022.95,2228.63,2427.81,350.45,325.83,22.23,0000 0000 0000 0000 000000
2014-01-05 00:36:55,0.23,4.77,0.00,23.69,24.97,27.85,5.91,30.83,1023.45,2046.99,2022.57,2228.25,2427.37,349.19,324.63,22.23,0000 0000 0000 0000 000000
2014-01-05 00:37:55,0.35,4.77,0.00,23.71,24.97,27.83,6.07,30.79,1023.45,2046.96,2022.21,2228.09,2427.14,350.51,325.84,22.24,0000 0000 0000 0000 000000
2014-01-05 00:38:55,0.18,4.77,0.00,23.71,24.97,27.85,5.91,30.75,1023.45,2046.97,2022.07,2228.03,2427.04,349.23,324.72,22.24,0000 0000 0000 0000 000000
2014-01-05 00:39:56,0.11,4.78,0.00,23.69,24.97,27.87,6.01,30.46,1023.45,2046.98,2021.95,2227.95,2426.93,349.97,325.35,22.25,0000 0000 0000 0000 000000
2014-01-05 00:40:56,0.08,4.78,0.00,23.69,24.97,27.87,5.99,30.63,1023.45,2046.98,2021.55,2227.60,2426.55,349.99,325.38,22.26,0000 0000 0000 0000 000000
2014-01-05 00:41:56,0.38,4.78,0.00,23.69,24.97,27.87,6.00,30.83,1023.44,2046.98,2021.21,2227.29,2426.21,349.24,324.68,22.26,0000 0000 0000 0000 000000
2014-01-05 00:42:56,0.28,4.78,0.00,23.70,24.97,27.88,5.84,30.54,1023.45,2046.98,2021.06,2227.11,2426.07,349.04,324.47,22.27,0000 0000 0000 0000 000000
2014-01-05 00:43:57,0.14,4.78,0.00,23.69,24.98,27.87,6.08,30.88,1023.45,2046.98,2020.97,2227.04,2426.01,350.78,326.34,22.27,0000 0000 0000 0000 000000
2014-01-05 00:44:57,0.05,4.78,0.00,23.69,24.99,27.87,5.97,30.79,1023.45,2046.98,2020.55,2226.93,2425.82,350.35,325.71,22.28,0000 0000 0000 0000 000000
2014-01-05 00:45:57,0.26,4.78,0.00,23.70,25.00,27.88,5.96,30.54,1023.45,2046.99,2020.23,2226.51,2425.38,349.63,325.03,22.29,0000 0000 0000 0000 000000
2014-01-05 00:46:58,0.39,4.78,0.00,23.69,25.00,27.88,6.02,30.75,1023.45,2046.98,2020.08,2226.19,2425.14,350.01,325.43,22.29,0000 0000 0000 0000 000000
2014-01-05 00:47:58,0.18,4.79,0.00,23.70,25.00,27.89,5.99,30.92,1023.45,2046.98,2019.97,2226.06,2425.05,349.75,325.02,22.30,0000 0000 0000 0000 000000
2014-01-05 00:48:58,0.06,4.79,0.00,23.68,25.00,27.89,5.99,30.71,1023.45,2046.98,2019.58,2226.01,2424.97,350.13,325.68,22.30,0000 0000 0000 0000 000000
2014-01-05 00:49:58,0.20,4.79,0.00,23.69,25.00,27.91,5.96,30.79,1023.45,2046.99,2019.25,2225.93,2424.71,349.46,325.21,22.31,0000 0000 0000 0000 000000
2014-01-05 00:50:58,0.20,4.79,0.00,23.70,25.00,27.90,5.97,30.63,1023.45,2046.98,2019.09,2225.49,2424.32,349.93,325.48,22.31,0000 0000 0000 0000 000000
2014-01-05 00:51:58,0.32,4.79,0.00,23.70,25.00,27.89,6.01,30.71,1023.45,2046.97,2019.01,2225.18,2424.11,349.64,325.04,22.32,0000 0000 0000 0000 000000
2014-01-05 00:52:59,0.14,4.79,0.00,23.73,25.01,27.90,5.88,30.79,1023.45,2046.98,2018.71,2225.06,2424.02,349.98,325.63,22.33,0000 0000 0000 0000 000000
2014-01-05 00:53:59,0.18,4.79,0.00,23.72,25.02,27.91,5.96,30.92,1023.45,2046.97,2018.29,2225.01,2423.87,349.45,324.83,22.33,0000 0000 0000 0000 000000
2014-01-05 00:54:59,0.15,4.79,0.00,23.72,25.02,27.91,5.72,30.63,1023.45,2046.97,2018.10,2224.74,2423.42,348.97,323.57,22.34,0000 0000 0000 0000 000000
2014-01-05 00:55:59,0.31,4.80,0.00,23.73,25.02,27.90,6.03,30.63,1023.45,2046.94,2017.92,2224.32,2423.15,350.08,325.15,22.34,0000 0000 0000 0000 000000
2014-01-05 00:56:59,0.22,4.80,0.00,23.74,25.02,27.91,5.93,30.88,1023.45,2046.90,2017.49,2224.11,2423.03,349.33,324.90,22.35,0000 0000 0000 0000 000000
2014-01-05 00:58:00,0.17,4.80,0.00,23.76,25.02,27.92,5.96,30.71,1023.45,2046.86,2017.18,2224.03,2422.90,349.93,325.24,22.36,0000 0000 0000 0000 000000
2014-01-05 00:59:00,0.10,4.80,0.00,23.75,25.02,27.91,5.97,30.92,1023.45,2046.86,2017.06,2223.94,2422.45,350.29,325.59,22.36,0000 0000 0000 0000 000000
2014-01-05 01:00:00,0.18,4.80,0.00,23.75,25.02,27.90,6.00,30.67,1023.45,2046.85,2016.97,2223.63,2422.17,349.82,325.02,22.37,0000 0000 0000 0000 000000
2014-01-05 01:01:00,0.24,4.80,0.00,23.75,25.02,27.91,5.98,31.08,1023.45,2046.81,2016.56,2223.26,2422.05,350.02,325.11,22.37,0000 0000 0000 0000 000000
2014-01-05 01:02:00,0.26,4.80,0.00,23.75,25.03,27.92,5.91,30.75,1023.43,2046.80,2016.21,2223.09,2422.00,349.86,325.29,22.38,0000 0000 0000 0000 000000
2014-01-05 01:03:01,0.12,4.80,0.00,23.75,25.04,27.92,5.84,30.71,1023.42,2046.74,2016.07,2223.01,2421.74,349.60,324.94,22.39,0000 0000 0000 0000 000000
2014-01-05 01:04:01,0.09,4.80,0.00,23.73,25.04,27.94,6.04,31.13,1023.44,2046.75,2016.01,2222.93,2421.32,349.56,324.83,22.39,0000 0000 0000 0000 000000
2014-01-05 01:05:01,0.17,4.80,0.00,23.76,25.04,27.93,5.82,30.75,1023.43,2046.72,2015.69,2222.57,2421.11,349.62,324.79,22.40,0000 0000 0000 0000 000000
2014-01-05 01:06:01,0.25,4.81,0.00,23.77,25.05,27.94,5.91,30.88,1023.39,2046.71,2015.30,2222.23,2421.04,349.81,325.07,22.40,0000 0000 0000 0000 000000
2014-01-05 01:07:02,0.24,4.81,0.00,23.74,25.05,27.93,5.85,30.71,1023.37,2046.65,2015.11,2222.08,2420.95,349.34,325.05,22.41,0000 0000 0000 0000 000000
2014-01-05 01:08:02,0.06,4.81,0.00,23.72,25.05,27.92,5.94,30.88,1023.38,2046.52,2015.01,2222.02,2420.50,349.55,325.14,22.41,0000 0000 0000 0000 000000
2014-01-05 01:09:02,0.05,4.81,0.00,23.73,25.05,27.94,6.02,30.92,1023.40,2046.55,2014.64,2221.95,2420.18,350.02,325.34,22.42,0000 0000 0000 0000 000000
2014-01-05 01:10:02,0.26,4.81,0.00,23.74,25.05,27.90,5.88,30.71,1023.37,2046.53,2014.24,2221.53,2420.06,348.50,323.64,22.43,0000 0000 0000 0000 000000
2014-01-05 01:11:03,0.31,4.81,0.00,23.74,25.05,27.93,5.95,30.88,1023.36,2046.49,2014.08,2221.21,2420.00,349.88,325.19,22.43,0000 0000 0000 0000 000000
2014-01-05 01:12:03,0.10,4.81,0.00,23.73,25.06,27.95,6.06,30.83,1023.36,2046.50,2014.01,2221.07,2419.85,350.44,325.71,22.44,0000 0000 0000 0000 000000
2014-01-05 01:13:03,0.14,4.81,0.00,23.75,25.07,27.96,5.95,31.00,1023.31,2046.51,2013.74,2221.02,2419.38,350.17,325.22,22.44,0000 0000 0000 0000 000000
2014-01-05 01:14:04,0.19,4.81,0.00,23.77,25.07,27.97,5.94,30.79,1023.27,2046.44,2013.29,2220.87,2419.14,349.85,325.11,22.45,0000 0000 0000 0000 000000
2014-01-05 01:15:04,0.18,4.82,0.00,23.78,25.07,27.97,5.94,30.63,1023.27,2046.36,2013.10,2220.47,2419.05,350.62,325.45,22.46,0000 0000 0000 0000 000000
2014-01-05 01:16:04,0.20,4.82,0.00,23.78,25.07,27.93,5.97,31.00,1023.24,2046.29,2013.00,2220.18,2418.95,350.07,325.29,22.46,0000 0000 0000 0000 000000
2014-01-05 01:17:04,0.08,4.82,0.00,23.77,25.07,27.95,5.92,30.79,1023.26,2046.26,2012.77,2220.07,2418.59,349.32,324.58,22.47,0000 0000 0000 0000 000000
2014-01-05 01:18:04,0.14,4.82,0.00,23.76,25.07,27.96,5.87,30.79,1023.20,2046.23,2012.33,2220.02,2418.23,350.03,325.55,22.47,0000 0000 0000 0000 000000
2014-01-05 01:19:05,0.19,4.82,0.00,23.75,25.07,27.98,6.21,31.08,1023.18,2046.19,2012.12,2219.91,2418.08,350.94,326.11,22.48,0000 0000 0000 0000 000000
2014-01-05 01:20:05,0.10,4.82,0.00,23.78,25.07,27.98,5.97,30.54,1023.13,2046.29,2012.03,2219.54,2418.01,350.34,325.51,22.48,0000 0000 0000 0000 000000
2014-01-05 01:21:05,0.32,4.82,0.00,23.79,25.08,27.98,5.99,30.58,1023.17,2046.27,2011.89,2219.20,2417.86,350.89,326.02,22.49,0000 0000 0000 0000 000000
2014-01-05 01:22:05,0.14,4.82,0.00,23.79,25.09,27.95,6.07,31.13,1023.18,2046.13,2011.43,2219.07,2417.40,350.77,326.07,22.50,0000 0000 0000 0000 000000
2014-01-05 01:23:06,0.22,4.82,0.00,23.79,25.09,27.97,6.02,30.63,1023.25,2046.12,2011.15,2219.02,2417.16,349.51,324.76,22.50,0000 0000 0000 0000 000000
2014-01-05 01:24:06,0.13,4.82,0.00,23.80,25.10,27.99,6.10,31.08,1023.27,2046.08,2011.05,2218.89,2417.05,350.47,325.65,22.51,0000 0000 0000 0000 000000
2014-01-05 01:25:06,0.04,4.82,0.00,23.80,25.10,27.99,6.16,31.08,1023.32,2046.06,2010.93,2218.47,2417.00,350.76,325.93,22.51,0000 0000 0000 0000 000000
2014-01-05 01:26:06,0.18,4.83,0.00,23.80,25.10,28.00,5.87,30.83,1023.30,2046.05,2010.52,2218.19,2416.75,349.13,324.41,22.52,0000 0000 0000 0000 000000
2014-01-05 01:27:06,0.31,4.83,0.00,23.80,25.10,28.02,5.98,30.83,1023.28,2046.05,2010.19,2218.06,2416.30,350.03,325.23,22.53,0000 0000 0000 0000 000000
2014-01-05 01:28:06,0.24,4.83,0.00,23.80,25.10,27.99,5.92,30.71,1023.38,2046.07,2010.06,2217.99,2416.12,349.45,324.64,22.53,0000 0000 0000 0000 000000
2014-01-05 01:29:07,0.11,4.83,0.00,23.80,25.10,28.00,6.02,30.83,1023.42,2046.05,2009.99,2217.77,2416.04,350.63,325.46,22.54,0000 0000 0000 0000 000000
2014-01-05 01:30:07,0.12,4.83,0.00,23.81,25.11,28.00,6.10,30.79,1023.37,2046.02,2009.73,2217.40,2416.00,351.03,326.20,22.54,0000 0000 0000 0000 000000
2014-01-05 01:31:07,0.22,4.83,0.00,23.81,25.11,27.99,5.90,30.63,1023.35,2046.00,2009.32,2217.17,2415.72,349.07,324.36,22.55,0000 0000 0000 0000 000000
2014-01-05 01:32:07,0.27,4.83,0.00,23.82,25.12,28.00,6.11,30.75,1023.33,2046.03,2009.11,2217.06,2415.29,349.94,325.15,22.55,0000 0000 0000 0000 000000
2014-01-05 01:33:08,0.21,4.83,0.00,23.82,25.12,28.00,5.94,30.67,1023.32,2046.03,2009.02,2217.01,2415.11,349.17,324.91,22.56,0000 0000 0000 0000 000000
2014-01-05 01:34:08,0.07,4.83,0.00,23.82,25.12,28.01,5.96,30.67,1023.33,2046.03,2008.85,2216.90,2415.03,350.05,324.84,22.57,0000 0000 0000 0000 000000
2014-01-05 01:35:08,0.12,4.84,0.00,23.82,25.12,28.02,5.97,30.58,1023.32,2046.02,2008.40,2216.48,2414.89,350.42,325.59,22.57,0000 0000 0000 0000 000000
2014-01-05 01:36:09,0.34,4.84,0.00,23.83,25.12,28.02,5.98,30.92,1023.33,2046.02,2008.15,2216.18,2414.44,349.08,324.34,22.58,0000 0000 0000 0000 000000
2014-01-05 01:37:09,0.28,4.84,0.00,23.84,25.12,28.02,5.95,30.83,1023.39,2046.01,2008.03,2216.06,2414.17,350.50,325.51,22.58,0000 0000 0000 0000 000000
2014-01-05 01:38:09,0.13,4.84,0.00,23.83,25.12,28.02,5.96,30.67,1023.37,2046.00,2007.83,2215.98,2414.05,350.51,325.27,22.59,0000 0000 0000 0000 000000
2014-01-05 01:39:09,0.12,4.84,0.00,23.83,25.13,28.03,5.91,31.00,1023.38,2046.01,2007.38,2215.68,2413.98,348.21,324.11,22.60,0000 0000 0000 0000 000000
2014-01-05 01:40:10,0.28,4.84,0.00,23.83,25.14,28.05,5.99,30.71,1023.44,2046.01,2007.14,2215.30,2413.71,350.30,325.51,22.60,0000 0000 0000 0000 000000
2014-01-05 01:41:10,0.27,4.84,0.00,23.83,25.14,28.02,5.77,30.29,1023.45,2046.00,2007.05,2215.11,2413.28,350.79,325.49,22.61,0000 0000 0000 0000 000000
2014-01-05 01:42:10,0.18,4.85,0.00,23.84,25.15,28.03,6.06,30.79,1023.45,2046.00,2006.98,2215.04,2413.10,350.46,325.72,22.61,0000 0000 0000 0000 000000
2014-01-05 01:43:10,0.08,4.85,0.00,23.84,25.15,28.03,5.88,30.67,1023.43,2046.00,2006.65,2215.01,2413.03,348.78,324.14,22.62,0000 0000 0000 0000 000000
2014-01-05 01:44:10,0.13,4.85,0.00,23.85,25.15,28.04,5.91,30.50,1023.39,2046.00,2006.28,2214.92,2412.96,349.26,324.50,22.62,0000 0000 0000 0000 000000
2014-01-05 01:45:11,0.15,4.85,0.00,23.83,25.15,28.05,5.99,30.96,1023.41,2046.00,2006.10,2214.65,2412.74,349.60,324.84,22.63,0000 0000 0000 0000 000000
2014-01-05 01:46:11,0.22,4.85,0.00,23.82,25.15,28.05,5.98,30.46,1023.41,2046.00,2006.03,2214.28,2412.37,350.27,325.49,22.64,0000 0000 0000 0000 000000
2014-01-05 01:47:11,0.24,4.85,0.00,23.82,25.15,28.07,5.98,30.75,1023.44,2046.00,2005.94,2214.10,2412.15,349.25,324.11,22.64,0000 0000 0000 0000 000000
2014-01-05 01:48:11,0.15,4.85,0.00,23.84,25.15,28.05,6.03,30.75,1023.43,2046.00,2005.56,2214.03,2412.05,348.97,324.02,22.65,0000 0000 0000 0000 000000
2014-01-05 01:49:12,0.16,4.85,0.00,23.84,25.17,28.07,5.96,30.71,1023.44,2046.00,2005.23,2213.99,2412.00,350.71,326.04,22.65,0000 0000 0000 0000 000000
2014-01-05 01:50:12,0.14,4.85,0.00,23.85,25.17,28.07,6.01,30.75,1023.42,2046.00,2005.08,2213.80,2411.84,349.86,325.07,22.66,0000 0000 0000 0000 000000
2014-01-05 01:51:12,0.15,4.85,0.00,23.84,25.17,28.07,6.04,30.58,1023.39,2046.00,2005.02,2213.39,2411.37,350.22,325.40,22.67,0000 0000 0000 0000 000000
2014-01-05 01:52:12,0.28,4.86,0.00,23.86,25.17,28.07,5.89,30.67,1023.35,2046.00,2004.92,2213.14,2411.13,350.09,325.44,22.67,0000 0000 0000 0000 000000
2014-01-05 01:53:12,0.18,4.86,0.00,23.84,25.17,28.09,6.11,30.88,1023.33,2046.00,2004.47,2213.04,2411.05,350.34,325.50,22.68,0000 0000 0000 0000 000000
2014-01-05 01:54:13,0.19,4.86,0.00,23.84,25.17,28.08,6.00,30.54,1023.34,2046.00,2004.17,2213.01,2411.01,349.76,324.49,22.68,0000 0000 0000 0000 000000
2014-01-05 01:55:13,0.11,4.86,0.00,23.84,25.17,28.09,6.03,30.75,1023.37,2046.00,2004.06,2212.94,2410.83,350.32,325.50,22.69,0000 0000 0000 0000 000000
2014-01-05 01:56:13,0.10,4.86,0.00,23.86,25.17,28.08,5.88,30.79,1023.37,2046.00,2004.01,2212.63,2410.38,349.39,324.99,22.70,0000 0000 0000 0000 000000
2014-01-05 01:57:13,0.25,4.86,0.00,23.84,25.18,28.07,6.14,30.75,1023.38,2046.00,2003.73,2212.25,2410.14,350.52,325.56,22.70,0000 0000 0000 0000 000000
2014-01-05 01:58:14,0.28,4.86,0.00,23.84,25.19,28.08,5.75,30.75,1023.37,2046.00,2003.31,2212.09,2410.05,348.88,323.96,22.71,0000 0000 0000 0000 000000
2014-01-05 01:59:14,0.21,4.86,0.00,23.83,25.19,28.08,6.04,30.50,1023.32,2046.00,2003.12,2212.03,2409.98,350.21,325.38,22.71,0000 0000 0000 0000 000000
2014-01-05 02:00:14,0.10,4.86,0.00,23.84,25.19,28.08,5.88,30.96,1023.21,2045.99,2003.04,2211.98,2409.69,349.13,324.33,22.72,0000 0000 0000 0000 000000
2014-01-05 02:01:14,0.10,4.86,0.00,23.83,25.20,28.06,6.08,30.63,1023.19,2045.97,2003.01,2211.73,2409.31,350.92,325.65,22.72,0000 0000 0000 0000 000000
2014-01-05 02:02:15,0.18,4.87,0.00,23.83,25.20,28.07,5.97,30.75,1023.15,2045.98,2002.70,2211.33,2409.11,350.06,325.19,22.73,0000 0000 0000 0000 000000
2014-01-05 02:03:15,0.30,4.87,0.00,23.82,25.20,28.07,6.04,30.79,1023.11,2045.98,2002.31,2211.13,2409.04,350.37,325.48,22.74,0000 0000 0000 0000 000000
2014-01-05 02:04:15,0.20,4.87,0.00,23.83,25.20,28.08,5.97,30.79,1023.02,2045.99,2002.11,2211.05,2409.00,349.75,324.86,22.74,0000 0000 0000 0000 000000
2014-01-05 02:05:15,0.12,4.87,0.00,23.84,25.20,28.08,6.04,30.71,1023.03,2045.99,2002.03,2211.00,2408.89,350.85,325.87,22.75,0000 0000 0000 0000 000000
2014-01-05 02:06:15,0.06,4.87,0.00,23.85,25.20,28.09,5.90,30.75,1023.01,2045.99,2001.96,2210.96,2408.57,349.00,324.08,22.75,0000 0000 0000 0000 000000
2014-01-05 02:07:16,0.10,4.87,0.00,23.86,25.20,28.10,5.85,30.38,1022.99,2045.97,2001.60,2210.69,2408.24,348.54,323.71,22.76,0000 0000 0000 0000 000000
2014-01-05 02:08:16,0.27,4.87,0.00,23.88,25.21,28.09,6.08,31.04,1023.01,2045.96,2001.26,2210.28,2408.08,350.71,325.69,22.77,0000 0000 0000 0000 000000
2014-01-05 02:09:16,0.32,4.87,0.00,23.87,25.22,28.09,5.96,31.00,1023.04,2045.96,2001.09,2210.11,2408.03,349.24,324.35,22.77,0000 0000 0000 0000 000000
2014-01-05 02:10:16,0.13,4.87,0.00,23.86,25.22,28.08,6.00,30.63,1023.03,2045.96,2001.03,2210.04,2407.95,350.19,325.25,22.78,0000 0000 0000 0000 000000
2014-01-05 02:11:17,0.07,4.88,0.00,23.88,25.22,28.09,6.02,30.58,1023.06,2045.98,2000.94,2210.00,2407.68,350.20,325.31,22.78,0000 0000 0000 0000 000000
2014-01-05 02:12:17,0.11,4.88,0.00,23.88,25.22,28.11,5.94,30.75,1023.08,2045.97,2000.61,2209.97,2407.30,349.68,324.76,22.79,0000 0000 0000 0000 000000
2014-01-05 02:13:17,0.21,4.88,0.00,23.88,25.22,28.09,6.01,30.83,1023.07,2045.97,2000.24,2209.63,2407.11,350.01,325.26,22.79,0000 0000 0000 0000 000000
2014-01-05 02:14:18,0.29,4.88,0.00,23.87,25.22,28.09,6.08,30.71,1023.05,2045.99,2000.08,2209.28,2407.04,349.99,325.16,22.80,0000 0000 0000 0000 000000
2014-01-05 02:15:18,0.19,4.88,0.00,23.88,25.22,28.09,5.95,30.63,1023.09,2045.98,2000.02,2209.10,2406.99,350.68,325.11,22.81,0000 0000 0000 0000 000000
2014-01-05 02:16:18,0.09,4.88,0.00,23.88,25.22,28.12,5.82,30.92,1023.10,2045.98,1999.97,2209.03,2406.79,349.14,324.03,22.81,0000 0000 0000 0000 000000
2014-01-05 02:17:19,0.11,4.88,0.00,23.87,25.22,28.13,5.88,30.79,1023.13,2045.97,1999.59,2208.99,2406.36,349.97,325.06,22.82,0000 0000 0000 0000 000000
2014-01-05 02:18:19,0.21,4.88,0.00,23.86,25.23,28.13,5.95,30.63,1023.09,2045.95,1999.22,2208.88,2406.14,350.03,325.11,22.82,0000 0000 0000 0000 000000
2014-01-05 02:19:19,0.20,4.88,0.00,23.87,25.23,28.14,5.93,30.71,1023.09,2045.95,1999.07,2208.50,2406.05,350.14,325.11,22.83,0000 0000 0000 0000 000000
2014-01-05 02:20:19,0.20,4.88,0.00,23.88,25.24,28.13,6.17,30.88,1023.10,2045.95,1999.02,2208.20,2406.02,349.72,324.92,22.84,0000 0000 0000 0000 000000
2014-01-05 02:21:20,0.13,4.89,0.00,23.86,25.25,28.11,6.03,30.96,1023.06,2045.97,1998.95,2208.07,2405.97,350.13,325.20,22.84,0000 0000 0000 0000 000000
2014-01-05 02:22:20,0.12,4.89,0.00,23.87,25.25,28.13,6.08,31.25,1023.05,2045.94,1998.55,2208.01,2405.73,351.44,326.49,22.85,0000 0000 0000 0000 000000
2014-01-05 02:23:21,0.17,4.89,0.00,23.87,25.25,28.14,6.02,30.92,1023.03,2045.93,1998.20,2207.99,2405.30,350.16,325.21,22.85,0000 0000 0000 0000 000000
2014-01-05 02:24:21,0.17,4.89,0.00,23.86,25.25,28.14,6.06,30.75,1023.01,2045.92,1998.07,2207.84,2405.11,350.43,325.46,22.86,0000 0000 0000 0000 000000
2014-01-05 02:25:21,0.14,4.89,0.00,23.86,25.25,28.14,5.93,30.96,1023.01,2045.93,1998.01,2207.46,2405.04,350.23,325.14,22.87,0000 0000 0000 0000 000000
2014-01-05 02:26:21,0.18,4.89,0.00,23.88,25.25,28.13,5.90,30.75,1023.01,2045.91,1997.93,2207.18,2405.00,349.47,324.18,22.87,0000 0000 0000 0000 000000
2014-01-05 02:27:22,0.15,4.89,0.00,23.89,25.25,28.16,5.83,30.58,1023.07,2045.92,1997.57,2207.06,2404.84,350.02,325.06,22.88,0000 0000 0000 0000 000000
2014-01-05 02:28:22,0.21,4.89,0.00,23.90,25.25,28.16,6.01,30.92,1023.10,2045.89,1997.23,2207.01,2404.43,349.98,325.23,22.88,0000 0000 0000 0000 000000
2014-01-05 02:29:22,0.19,4.89,0.00,23.89,25.25,28.14,5.92,30.63,1023.13,2045.90,1997.08,2206.96,2404.18,349.58,324.75,22.89,0000 0000 0000 0000 000000
2014-01-05 02:30:22,0.10,4.89,0.00,23.89,25.26,28.15,5.80,30.63,1023.13,2045.92,1997.03,2206.89,2404.06,349.83,324.67,22.89,0000 0000 0000 0000 000000
2014-01-05 02:31:23,0.07,4.89,0.00,23.90,25.27,28.16,5.90,30.50,1023.08,2045.86,1997.00,2206.51,2404.02,349.51,324.58,22.90,0000 0000 0000 0000 000000
2014-01-05 02:32:23,0.14,4.90,0.00,23.90,25.27,28.14,5.87,30.88,1023.01,2045.83,1996.78,2206.21,2404.00,349.20,324.59,22.91,0000 0000 0000 0000 000000
2014-01-05 02:33:23,0.16,4.90,0.00,23.88,25.27,28.14,5.98,30.75,1023.00,2045.76,1996.37,2206.08,2403.83,349.38,323.98,22.91,0000 0000 0000 0000 000000
2014-01-05 02:34:24,0.14,4.90,0.00,23.88,25.27,28.17,6.03,30.79,1023.01,2045.86,1996.14,2206.03,2403.45,349.64,324.70,22.92,0000 0000 0000 0000 000000
2014-01-05 02:35:24,0.26,4.90,0.00,23.87,25.27,28.15,5.90,30.92,1023.00,2045.86,1996.05,2206.01,2403.17,348.91,324.04,22.92,0000 0000 0000 0000 000000
2014-01-05 02:36:24,0.11,4.90,0.00,23.87,25.27,28.16,5.98,30.67,1023.02,2045.75,1996.02,2205.95,2403.06,350.32,325.36,22.93,0000 0000 0000 0000 000000